Wind from 192 at 3 knots gusting 5

Air temperature 20.6° C
Dewpoint 15.8° C

Last reported at 2014-Apr-23 14:41 UTC.
Time now 2014-Apr-23 15:33 UTC

Location: N 40°41' E 022°51'.
View on Google Maps.

See reports from other nearby stations

Tides Stations Pressure Air Temp Water Temp Dewpoint Dewpoint depression Visibility Wind Speed Wind Dir Waves Ship positions

  
sailing weather and tide predictions

SV2BZQ-2 Thessalonik GR weather

date/time (UTC)wind fromknots sea level pressurealtimeterstation pressurevisibilityair tempwater tempwave heightnotes
2014-Apr-23 14:41 192 3 gusting 5 20.6
2014-Apr-23 14:36 195 4 gusting 6 20.6
2014-Apr-23 14:34 203 3 gusting 7 20.0
2014-Apr-23 14:26 190 3 gusting 2 20.6
2014-Apr-23 14:22 224 2 gusting 5 20.6
2014-Apr-23 14:19 240 1 gusting 3 20.6
2014-Apr-23 14:11 226 0 gusting 1 20.6
2014-Apr-23 14:06 215 3 gusting 4 21.1
2014-Apr-23 14:04 238 2 gusting 5 20.6
2014-Apr-23 13:56 209 2 gusting 3 20.6
2014-Apr-23 13:51 187 1 gusting 4 20.6
2014-Apr-23 13:49 111 20.6
2014-Apr-23 13:41 110 0 gusting 1 20.6
2014-Apr-23 13:36 119 20.6
2014-Apr-23 13:35 119 20.6
2014-Apr-23 13:26 120 1 gusting 3 20.6
2014-Apr-23 13:21 121 1 gusting 1 20.6
2014-Apr-23 13:19 113 1 gusting 3 20.6
2014-Apr-23 13:11 125 0 gusting 3 20.6
2014-Apr-23 13:06 162 0 gusting 1 20.6
2014-Apr-23 13:04 162 0 gusting 3 20.6
2014-Apr-23 12:56 208 0 gusting 2 20.6
2014-Apr-23 12:51 209 20.6
2014-Apr-23 12:49 209 20.0
2014-Apr-23 12:41 212 3 gusting 4 20.6
2014-Apr-23 12:36 194 4 gusting 4 20.6
2014-Apr-23 12:34 207 5 gusting 7 20.6
2014-Apr-23 12:26 184 1 gusting 3 21.1
2014-Apr-23 12:21 200 2 gusting 4 21.1
2014-Apr-23 12:19 190 2 gusting 7 20.6
2014-Apr-23 12:11 203 3 gusting 6 21.1
2014-Apr-23 12:06 190 0 gusting 3 21.7
2014-Apr-23 12:03 190 0 gusting 4 21.1
2014-Apr-23 11:56 190 1 gusting 3 21.7
2014-Apr-23 11:51 199 2 gusting 3 21.7
2014-Apr-23 11:48 184 0 gusting 5 21.1
2014-Apr-23 11:41 194 1 gusting 5 21.7
2014-Apr-23 11:36 176 1 gusting 4 21.7
2014-Apr-23 11:33 163 1 gusting 6 21.1
2014-Apr-23 11:26 182 21.7
2014-Apr-23 11:21 176 4 gusting 5 21.7
2014-Apr-23 11:18 173 2 gusting 6 21.1
2014-Apr-23 11:11 200 2 gusting 4 21.7
2014-Apr-23 11:06 167 3 gusting 4 21.7
2014-Apr-23 11:04 173 0 gusting 5 21.1
2014-Apr-23 10:56 156 2 gusting 5 21.7
2014-Apr-23 10:51 150 1 gusting 4 21.7
2014-Apr-23 10:48 178 2 gusting 6 21.1
2014-Apr-23 10:41 189 2 gusting 5 21.7
2014-Apr-23 10:36 183 1 gusting 3 21.7
2014-Apr-23 10:33 182 3 gusting 6 21.1
2014-Apr-23 10:26 178 0 gusting 2 21.1
2014-Apr-23 10:21 172 2 gusting 5 21.1
2014-Apr-23 10:18 194 0 gusting 5 20.6
2014-Apr-23 10:11 227 1 gusting 4 21.1
2014-Apr-23 10:06 194 2 gusting 3 21.1
2014-Apr-23 10:03 198 1 gusting 5 21.1
2014-Apr-23 09:56 192 0 gusting 2 21.1
2014-Apr-23 09:51 180 20.6
2014-Apr-23 09:47 205 20.0
2014-Apr-23 09:41 180 1 gusting 1 20.6
2014-Apr-23 09:36 200 3 gusting 5 20.6
2014-Apr-23 09:32 195 0 gusting 3 20.0
2014-Apr-23 09:26 194 20.6
2014-Apr-23 09:21 193 3 gusting 5 20.6
2014-Apr-23 09:17 179 0 gusting 4 20.0
2014-Apr-23 09:11 177 0 gusting 1 20.6
2014-Apr-23 09:06 169 1 gusting 3 20.6
2014-Apr-23 09:02 171 1 gusting 4 20.0
2014-Apr-23 08:56 169 0 gusting 3 20.6
2014-Apr-23 08:51 171 0 gusting 4 20.6
2014-Apr-23 08:47 173 2 gusting 6 20.0
2014-Apr-23 08:41 146 20.6
2014-Apr-23 08:36 144 20.6
2014-Apr-23 08:32 144 0 gusting 3 20.0
2014-Apr-23 08:26 144 20.0
2014-Apr-23 08:21 145 0 gusting 2 20.0
2014-Apr-23 08:17 144 20.0
2014-Apr-23 08:11 141 20.0
2014-Apr-23 08:06 140 20.0
2014-Apr-23 08:02 140 19.4
2014-Apr-23 07:56 140 19.4
2014-Apr-23 07:51 138 19.4
2014-Apr-23 07:47 138 0 gusting 2 18.9
2014-Apr-23 07:41 140 18.9
2014-Apr-23 07:36 140 18.9
2014-Apr-23 07:31 140 18.9
2014-Apr-23 07:21 140 18.3
2014-Apr-23 07:16 140 18.3
2014-Apr-23 07:06 140 18.3
2014-Apr-23 07:01 140 18.3
2014-Apr-23 06:51 136 17.8
2014-Apr-23 06:46 136 17.8
2014-Apr-23 06:36 129 0 gusting 3 17.2
2014-Apr-23 06:31 126 0 gusting 2 16.7
2014-Apr-23 06:21 123 0 gusting 1 16.7
2014-Apr-23 06:17 121 0 gusting 3 16.1
2014-Apr-23 06:11 121 16.1
2014-Apr-23 06:06 121 1 gusting 2 16.1
2014-Apr-23 06:01 121 16.1
2014-Apr-23 05:51 121 0 15.6
2014-Apr-23 05:46 122 15.6
2014-Apr-23 05:45 122 15.6
2014-Apr-23 05:36 121 15.6
2014-Apr-23 05:31 121 15.6
2014-Apr-23 05:30 121 15.0
2014-Apr-23 05:21 121 0 gusting 2 15.6
2014-Apr-23 05:16 121 1 gusting 2 15.6
2014-Apr-23 05:06 128 0 gusting 2 15.6
2014-Apr-23 05:01 127 1 gusting 4 15.6
2014-Apr-23 05:00 126 0 gusting 5 15.0
2014-Apr-23 04:51 119 15.6
2014-Apr-23 04:46 112 0 gusting 3 15.0
2014-Apr-23 04:45 112 15.0
2014-Apr-23 04:36 108 3 gusting 6 15.0
2014-Apr-23 04:31 092 1 gusting 2 15.0
2014-Apr-23 04:30 092 2 gusting 5 14.4
2014-Apr-23 04:21 284 0 gusting 2 14.4
2014-Apr-23 04:16 286 14.4
2014-Apr-23 04:15 286 13.9
2014-Apr-23 04:06 286 0 gusting 1 14.4
2014-Apr-23 04:01 286 0 gusting 2 14.4
2014-Apr-23 04:00 286 13.9
2014-Apr-23 03:51 284 1 gusting 3 14.4
2014-Apr-23 03:46 019 14.4
2014-Apr-23 03:44 018 13.9
2014-Apr-23 03:36 019 14.4
2014-Apr-23 03:31 019 14.4
2014-Apr-23 03:29 019 14.4
2014-Apr-23 03:21 026 1 gusting 2 14.4
2014-Apr-23 03:16 295 2 gusting 3 14.4
2014-Apr-23 03:14 294 0 gusting 3 14.4
2014-Apr-23 03:06 034 1 gusting 2 15.0
2014-Apr-23 03:01 034 0 gusting 2 15.0
2014-Apr-23 02:59 033 1 gusting 2 14.4
2014-Apr-23 02:51 034 1 gusting 2 15.0
2014-Apr-23 02:46 035 15.0
2014-Apr-23 02:44 034 14.4
2014-Apr-23 02:36 035 15.0
2014-Apr-23 02:31 035 15.0
2014-Apr-23 02:29 035 15.0
2014-Apr-23 02:21 035 0 gusting 2 15.0
2014-Apr-23 02:16 035 0 gusting 2 15.0
2014-Apr-23 02:14 035 15.0
2014-Apr-23 02:06 056 15.0
2014-Apr-23 02:01 065 0 gusting 4 15.0
2014-Apr-23 01:59 111 0 gusting 3 14.4
2014-Apr-23 01:51 288 14.4
2014-Apr-23 01:46 288 14.4
2014-Apr-23 01:44 288 14.4
2014-Apr-23 01:36 286 0 gusting 1 14.4
2014-Apr-23 01:31 288 15.0
2014-Apr-23 01:29 288 14.4
2014-Apr-23 01:21 295 1 gusting 4 15.0
2014-Apr-23 01:16 301 2 gusting 4 15.0
2014-Apr-23 01:13 315 1 gusting 4 14.4
2014-Apr-23 01:06 338 0 gusting 4 15.0
2014-Apr-23 01:01 305 4 gusting 6 15.6
2014-Apr-23 00:58 287 1 gusting 5 15.0
2014-Apr-23 00:51 325 2 gusting 3 15.6
2014-Apr-23 00:46 045 0 gusting 1 15.6
2014-Apr-23 00:43 045 15.6
2014-Apr-23 00:36 045 15.6
2014-Apr-23 00:31 045 15.6
2014-Apr-23 00:28 045 15.6
2014-Apr-23 00:21 045 15.6
2014-Apr-23 00:16 045 15.6
2014-Apr-23 00:14 045 15.6
2014-Apr-23 00:06 043 0 gusting 1 15.6
2014-Apr-23 00:01 042 15.6
2014-Apr-23 00:00 042 0 gusting 2 15.6
2014-Apr-22 23:51 043 0 gusting 0 15.6
2014-Apr-22 23:46 043 0 gusting 2 15.6
2014-Apr-22 23:43 044 15.6
2014-Apr-22 23:36 044 15.6
2014-Apr-22 23:31 044 15.6
2014-Apr-22 23:27 044 15.0
2014-Apr-22 23:21 044 15.6
2014-Apr-22 23:16 044 15.6
2014-Apr-22 23:12 044 15.0
2014-Apr-22 23:06 044 15.6
2014-Apr-22 23:01 044 15.6
2014-Apr-22 22:57 044 0 gusting 2 15.0
2014-Apr-22 22:51 043 15.6
2014-Apr-22 22:46 043 15.6
2014-Apr-22 22:42 043 0 gusting 4 15.6
2014-Apr-22 22:36 219 15.6
2014-Apr-22 22:31 219 15.6
2014-Apr-22 22:27 219 15.6
2014-Apr-22 22:21 219 15.6
2014-Apr-22 22:16 219 16.1
2014-Apr-22 22:12 219 15.6
2014-Apr-22 22:06 228 4 gusting 6 16.1
2014-Apr-22 22:01 186 3 gusting 4 16.1
2014-Apr-22 21:57 128 2 gusting 3 16.1
2014-Apr-22 21:51 123 16.1
2014-Apr-22 21:46 123 16.7
2014-Apr-22 21:42 123 16.1
2014-Apr-22 21:36 123 16.7
2014-Apr-22 21:31 123 0 gusting 1 16.7
2014-Apr-22 21:27 123 16.1
2014-Apr-22 21:21 123 16.7
2014-Apr-22 21:16 123 16.7
2014-Apr-22 21:12 123 16.7
2014-Apr-22 21:06 123 16.7
2014-Apr-22 21:01 123 16.7
2014-Apr-22 20:57 124 16.7
2014-Apr-22 20:51 123 16.7
2014-Apr-22 20:46 123 16.7
2014-Apr-22 20:42 123 16.7
2014-Apr-22 20:36 123 16.7
2014-Apr-22 20:31 124 16.7
2014-Apr-22 20:26 124 17.2
2014-Apr-22 20:16 124 17.2
2014-Apr-22 20:11 123 17.2
2014-Apr-22 20:01 123 17.2
2014-Apr-22 19:56 123 17.2
2014-Apr-22 19:46 123 17.2
2014-Apr-22 19:41 123 17.2
2014-Apr-22 19:31 123 17.2
2014-Apr-22 19:26 123 17.2
2014-Apr-22 19:16 123 17.2
2014-Apr-22 19:11 123 17.2
2014-Apr-22 19:01 123 17.2
2014-Apr-22 18:56 123 17.2
2014-Apr-22 18:46 123 17.8
2014-Apr-22 18:41 123 17.8
2014-Apr-22 18:31 123 17.8
2014-Apr-22 18:26 123 17.8
2014-Apr-22 18:16 123 17.8
2014-Apr-22 18:11 123 17.8
2014-Apr-22 18:01 123 17.8
2014-Apr-22 17:56 123 17.8
2014-Apr-22 17:55 123 17.2
2014-Apr-22 17:46 123 17.8
2014-Apr-22 17:41 123 17.8
2014-Apr-22 17:31 123 17.8
2014-Apr-22 17:26 123 17.8
2014-Apr-22 17:25 123 17.8
2014-Apr-22 17:16 123 0 gusting 0 17.8
2014-Apr-22 17:11 123 17.8
2014-Apr-22 17:10 123 17.8
2014-Apr-22 17:01 123 17.8
2014-Apr-22 16:56 125 0 gusting 3 17.8
2014-Apr-22 16:55 125 0 gusting 6 17.8
2014-Apr-22 16:46 148 1 gusting 3 18.3
2014-Apr-22 16:41 155 0 gusting 2 18.3
2014-Apr-22 16:40 155 18.3
2014-Apr-22 16:31 157 18.3
2014-Apr-22 16:26 153 0 gusting 2 18.3
2014-Apr-22 16:25 153 18.3
2014-Apr-22 16:16 175 0 gusting 1 18.9
2014-Apr-22 16:11 174 2 gusting 4 18.9
2014-Apr-22 16:10 173 0 gusting 5 18.9
2014-Apr-22 16:01 169 0 gusting 4 18.9
2014-Apr-22 15:56 169 0 gusting 5 19.4
2014-Apr-22 15:54 172 18.9
2014-Apr-22 15:46 174 2 gusting 4 19.4
2014-Apr-22 15:41 177 2 gusting 4 19.4
2014-Apr-22 15:40 175 2 gusting 6 19.4
2014-Apr-22 15:31 167 3 gusting 4 20.0
2014-Apr-22 15:26 182 2 gusting 3 20.0
2014-Apr-22 15:24 222 3 gusting 6 20.0
2014-Apr-22 15:16 150 2 gusting 6 20.6
2014-Apr-22 15:11 181 1 gusting 2 20.6
2014-Apr-22 15:09 187 1 gusting 4 20.6
2014-Apr-22 15:01 169 3 gusting 5 20.6
2014-Apr-22 14:56 158 3 gusting 4 21.1
2014-Apr-22 14:54 155 2 gusting 5 21.1
2014-Apr-22 14:46 171 2 gusting 4 21.1
2014-Apr-22 14:41 174 3 gusting 5 21.7
2014-Apr-22 14:39 160 3 gusting 6 21.1
2014-Apr-22 14:31 181 3 gusting 6 21.7
2014-Apr-22 14:26 173 2 gusting 4 21.7
2014-Apr-22 14:24 172 2 gusting 6 21.7
2014-Apr-22 14:16 161 2 gusting 4 22.2
2014-Apr-22 14:11 163 4 gusting 6 22.2
2014-Apr-22 14:09 167 2 gusting 6 22.2
2014-Apr-22 14:01 155 0 gusting 4 22.8
2014-Apr-22 13:56 146 1 gusting 6 22.8
2014-Apr-22 13:55 152 0 gusting 6 22.8
2014-Apr-22 13:46 137 1 gusting 3 23.3
2014-Apr-22 13:41 139 1 gusting 4 23.3
2014-Apr-22 13:39 150 0 gusting 6 22.8
2014-Apr-22 13:31 129 2 gusting 6 23.3
2014-Apr-22 13:26 109 3 gusting 3 23.9
2014-Apr-22 13:21 132 1 gusting 3 23.9
2014-Apr-22 13:16 129 2 gusting 3 23.9
2014-Apr-22 13:13 167 1 gusting 3 23.9
2014-Apr-22 13:09 173 0 gusting 5 23.3
2014-Apr-22 13:02 207 1 gusting 4 23.9
2014-Apr-22 12:56 170 1 gusting 3 23.9
2014-Apr-22 12:54 190 23.3
2014-Apr-22 12:46 163 1 gusting 1 23.9
2014-Apr-22 12:41 186 1 gusting 4 23.3
2014-Apr-22 12:38 182 1 gusting 5 23.3
2014-Apr-22 12:31 168 1 gusting 3 23.9
2014-Apr-22 12:26 144 0 gusting 4 23.9
2014-Apr-22 12:24 137 0 gusting 4 23.3
2014-Apr-22 12:16 179 0 gusting 0 23.3
2014-Apr-22 12:11 175 23.3
2014-Apr-22 12:08 175 23.3
2014-Apr-22 12:01 189 23.3
2014-Apr-22 11:56 190 1 gusting 2 23.3
2014-Apr-22 11:53 200 0 gusting 5 22.8
2014-Apr-22 11:46 187 2 gusting 5 23.3
2014-Apr-22 11:41 176 1 gusting 2 23.3
2014-Apr-22 11:38 172 0 gusting 4 23.3
2014-Apr-22 11:31 181 0 gusting 3 23.3
2014-Apr-22 11:26 139 23.3
2014-Apr-22 11:23 138 23.3
2014-Apr-22 11:16 138 0 gusting 2 23.3
2014-Apr-22 11:11 144 0 gusting 2 23.3
2014-Apr-22 11:08 142 0 gusting 6 22.8
2014-Apr-22 11:01 153 22.8
2014-Apr-22 10:56 182 0 gusting 2 22.8
2014-Apr-22 10:53 215 22.2
2014-Apr-22 10:46 180 22.8
2014-Apr-22 10:41 160 1 gusting 2 22.8
2014-Apr-22 10:37 125 0 gusting 6 22.2
2014-Apr-22 10:31 148 0 gusting 6 21.7
2014-Apr-22 10:26 158 0 gusting 1 21.7
2014-Apr-22 10:22 158 21.7
2014-Apr-22 10:16 165 2 gusting 3 21.7
2014-Apr-22 10:11 195 21.1
2014-Apr-22 10:07 196 21.1
2014-Apr-22 10:01 195 3 gusting 6 21.7
2014-Apr-22 09:56 115 0 gusting 0 21.1
2014-Apr-22 09:52 123 21.1
2014-Apr-22 09:46 123 21.1
2014-Apr-22 09:41 124 20.6
2014-Apr-22 09:37 123 20.6
2014-Apr-22 09:31 122 0 gusting 1 20.6
2014-Apr-22 09:26 190 20.6
2014-Apr-22 09:23 190 0 gusting 6 20.0
2014-Apr-22 09:16 229 3 gusting 4 20.6
2014-Apr-22 09:11 168 2 gusting 2 20.6
2014-Apr-22 09:07 151 2 gusting 6 20.6
2014-Apr-22 09:01 202 5 gusting 6 20.6
2014-Apr-22 08:56 184 3 gusting 4 20.6
2014-Apr-22 08:52 169 3 gusting 7 20.0
2014-Apr-22 08:46 167 3 gusting 8 20.0
2014-Apr-22 08:41 198 3 gusting 5 20.0
2014-Apr-22 08:37 189 1 gusting 5 19.4
2014-Apr-22 08:31 206 1 gusting 3 20.0
2014-Apr-22 08:26 202 0 gusting 1 20.0
2014-Apr-22 08:22 198 20.0
2014-Apr-22 08:16 215 1 gusting 3 20.6
2014-Apr-22 08:11 175 20.0
2014-Apr-22 08:06 175 1 gusting 3 20.0
2014-Apr-22 07:56 221 19.4
2014-Apr-22 07:51 215 1 gusting 2 19.4
2014-Apr-22 07:41 218 19.4
2014-Apr-22 07:36 234 19.4
2014-Apr-22 07:26 256 1 gusting 4 18.9
2014-Apr-22 07:21 269 1 gusting 2 18.9
2014-Apr-22 07:11 032 18.9
2014-Apr-22 07:06 031 18.3
2014-Apr-22 06:56 030 0 gusting 0 17.8
2014-Apr-22 06:51 030 17.8
2014-Apr-22 06:41 031 16.7
2014-Apr-22 06:36 031 16.7
2014-Apr-22 06:35 030 16.1
2014-Apr-22 06:26 030 16.1
2014-Apr-22 06:21 030 16.1
2014-Apr-22 06:20 030 15.6
2014-Apr-22 06:11 030 15.6
2014-Apr-22 06:06 031 0 gusting 1 15.6
2014-Apr-22 06:05 031 15.0
2014-Apr-22 05:56 031 1 gusting 2 15.0
2014-Apr-22 05:51 031 0 gusting 0 15.0
2014-Apr-22 05:50 031 0 gusting 2 14.4
2014-Apr-22 05:41 031 14.4
2014-Apr-22 05:36 032 13.9
2014-Apr-22 05:35 032 13.9
2014-Apr-22 05:26 031 13.9
2014-Apr-22 05:21 032 13.3
2014-Apr-22 05:20 032 13.3
2014-Apr-22 05:11 032 12.8
2014-Apr-22 05:06 032 12.8
2014-Apr-22 05:05 032 12.2
2014-Apr-22 04:56 032 12.2
2014-Apr-22 04:51 032 12.2
2014-Apr-22 04:49 032 12.2
2014-Apr-22 04:41 032 12.2
2014-Apr-22 04:36 032 12.2
2014-Apr-22 04:34 032 11.7
2014-Apr-22 04:26 032 11.7
2014-Apr-22 04:21 032 11.7
2014-Apr-22 04:19 032 11.7
2014-Apr-22 04:11 032 12.2
2014-Apr-22 04:06 032 12.2
2014-Apr-22 04:04 032 12.2
2014-Apr-22 03:56 032 0 gusting 1 12.8
2014-Apr-22 03:51 032 2 gusting 2 12.8
2014-Apr-22 03:49 044 1 gusting 3 12.8
2014-Apr-22 03:41 074 13.3
2014-Apr-22 03:36 074 13.3
2014-Apr-22 03:34 074 12.8
2014-Apr-22 03:26 072 13.3
2014-Apr-22 03:21 072 1 gusting 2 13.3
2014-Apr-22 03:19 071 1 gusting 5 12.8
2014-Apr-22 03:11 063 1 gusting 3 13.3
2014-Apr-22 03:06 046 0 gusting 3 13.3
2014-Apr-22 03:04 044 12.8
2014-Apr-22 02:56 024 0 gusting 3 12.8
2014-Apr-22 02:51 298 12.8
2014-Apr-22 02:48 298 12.8
2014-Apr-22 02:41 298 13.3
2014-Apr-22 02:36 298 13.3
2014-Apr-22 02:33 298 12.8
2014-Apr-22 02:26 298 13.3
2014-Apr-22 02:21 297 13.3
2014-Apr-22 02:18 296 12.8
2014-Apr-22 02:11 296 13.3
2014-Apr-22 02:06 297 13.3
2014-Apr-22 02:03 297 13.3
2014-Apr-22 01:56 297 0 gusting 1 13.3
2014-Apr-22 01:51 297 13.3
2014-Apr-22 01:48 297 13.3
2014-Apr-22 01:41 297 0 gusting 0 13.9
2014-Apr-22 01:36 323 1 gusting 3 13.9
2014-Apr-22 01:33 325 0 gusting 4 13.3
2014-Apr-22 01:26 035 2 gusting 3 13.9
2014-Apr-22 01:21 038 13.9
2014-Apr-22 01:18 038 13.9
2014-Apr-22 01:11 038 0 gusting 1 13.9
2014-Apr-22 01:06 038 0 gusting 2 13.9
2014-Apr-22 01:03 038 13.9
2014-Apr-22 00:56 060 2 gusting 3 13.9
2014-Apr-22 00:51 058 2 gusting 4 13.9
2014-Apr-22 00:47 044 0 gusting 5 13.9
2014-Apr-22 00:41 024 2 gusting 3 14.4
2014-Apr-22 00:36 051 1 gusting 1 14.4
2014-Apr-22 00:32 042 0 gusting 5 13.9
2014-Apr-22 00:26 047 1 gusting 2 14.4
2014-Apr-22 00:21 047 0 gusting 2 14.4
2014-Apr-22 00:17 047 13.9
2014-Apr-22 00:11 047 14.4
2014-Apr-22 00:06 047 0 gusting 2 14.4
2014-Apr-22 00:02 046 13.9
2014-Apr-21 23:56 046 0 gusting 3 14.4
2014-Apr-21 23:51 042 0 gusting 1 14.4
2014-Apr-21 23:47 040 13.9
2014-Apr-21 23:41 040 1 gusting 2 14.4
2014-Apr-21 23:36 038 0 gusting 2 14.4
2014-Apr-21 23:32 037 13.9
2014-Apr-21 23:26 019 14.4
2014-Apr-21 23:21 017 0 gusting 0 14.4
2014-Apr-21 23:17 015 0 gusting 6 13.9
2014-Apr-21 23:11 046 1 gusting 4 14.4
2014-Apr-21 23:06 061 2 gusting 4 14.4
2014-Apr-21 23:02 046 0 gusting 5 14.4
2014-Apr-21 22:56 064 1 gusting 3 14.4
2014-Apr-21 22:51 057 2 gusting 6 14.4
2014-Apr-21 22:47 063 3 gusting 7 14.4
2014-Apr-21 22:41 053 3 gusting 7 15.0
2014-Apr-21 22:36 065 1 gusting 3 15.0
2014-Apr-21 22:32 056 3 gusting 7 14.4
2014-Apr-21 22:26 067 1 gusting 3 15.0
2014-Apr-21 22:21 077 2 gusting 4 15.0
2014-Apr-21 22:16 037 1 gusting 3 15.0
2014-Apr-21 22:11 049 2 gusting 5 15.0
2014-Apr-21 22:06 043 2 gusting 5 15.6
2014-Apr-21 22:02 046 1 gusting 5 15.0
2014-Apr-21 21:56 053 1 gusting 4 15.6
2014-Apr-21 21:51 063 1 gusting 3 15.6
2014-Apr-21 21:46 065 1 gusting 2 15.6
2014-Apr-21 21:36 074 1 gusting 3 15.6
2014-Apr-21 21:31 058 1 gusting 7 15.6
2014-Apr-21 21:21 072 2 gusting 3 15.6
2014-Apr-21 21:16 061 1 gusting 2 15.6
2014-Apr-21 21:06 058 1 gusting 3 16.1
2014-Apr-21 21:02 056 0 gusting 4 15.6
2014-Apr-21 20:56 081 0 gusting 1 16.1
2014-Apr-21 20:51 082 1 gusting 1 16.1
2014-Apr-21 20:46 120 1 gusting 4 16.1
2014-Apr-21 20:36 128 1 gusting 2 16.1
2014-Apr-21 20:31 144 16.7
2014-Apr-21 20:21 173 16.7
2014-Apr-21 20:16 173 16.7
2014-Apr-21 20:06 173 16.7
2014-Apr-21 20:01 173 16.7
2014-Apr-21 19:51 173 16.7
2014-Apr-21 19:46 173 16.7
2014-Apr-21 19:36 173 16.7
2014-Apr-21 19:31 173 16.7
2014-Apr-21 19:21 173 16.7
2014-Apr-21 19:16 173 16.7
2014-Apr-21 19:06 112 16.7
2014-Apr-21 19:01 104 4 gusting 6 16.7
2014-Apr-21 18:51 110 1 gusting 3 16.7
2014-Apr-21 18:46 095 0 gusting 1 16.7
2014-Apr-21 18:45 095 0 gusting 3 16.7
2014-Apr-21 18:36 096 17.2
2014-Apr-21 18:31 096 17.2
2014-Apr-21 18:30 096 16.7
2014-Apr-21 18:21 096 17.2
2014-Apr-21 18:16 096 17.2
2014-Apr-21 18:15 096 16.7
2014-Apr-21 18:06 094 17.2
2014-Apr-21 18:01 090 17.2
2014-Apr-21 18:00 090 16.7
2014-Apr-21 17:51 068 3 gusting 6 17.2
2014-Apr-21 17:46 100 4 gusting 7 17.2
2014-Apr-21 17:45 099 4 gusting 7 17.2
2014-Apr-21 17:36 074 5 gusting 9 17.2
2014-Apr-21 17:31 052 1 gusting 2 17.2
2014-Apr-21 17:30 051 0 gusting 7 17.2
2014-Apr-21 17:21 073 2 gusting 3 17.8
2014-Apr-21 17:16 075 4 gusting 6 17.8
2014-Apr-21 17:15 075 2 gusting 5 17.2
2014-Apr-21 17:06 054 0 gusting 4 17.8
2014-Apr-21 17:01 055 0 gusting 1 17.8
2014-Apr-21 17:00 055 1 gusting 5 17.8
2014-Apr-21 16:51 059 0 gusting 3 17.8
2014-Apr-21 16:46 065 17.8
2014-Apr-21 16:45 065 0 gusting 8 17.8
2014-Apr-21 16:36 050 2 gusting 5 18.3
2014-Apr-21 16:31 064 1 gusting 2 18.3
2014-Apr-21 16:30 065 2 gusting 7 17.8
2014-Apr-21 16:21 074 6 gusting 9 18.3
2014-Apr-21 16:16 065 2 gusting 9 18.9
2014-Apr-21 16:14 056 1 gusting 7 18.3
2014-Apr-21 16:06 050 2 gusting 4 18.9
2014-Apr-21 16:01 078 0 gusting 4 18.9
2014-Apr-21 15:59 077 1 gusting 8 18.9
2014-Apr-21 15:51 058 3 gusting 6 19.4
2014-Apr-21 15:46 111 2 gusting 2 19.4
2014-Apr-21 15:44 107 4 gusting 7 19.4
2014-Apr-21 15:36 179 1 gusting 2 20.0
2014-Apr-21 15:31 173 0 gusting 1 20.0
2014-Apr-21 15:29 216 19.4
2014-Apr-21 15:21 193 20.0
2014-Apr-21 15:16 193 20.0
2014-Apr-21 15:14 193 19.4
2014-Apr-21 15:06 195 20.0
2014-Apr-21 15:01 195 20.0